TimeCST,TemperatureF,Dew PointF,Humidity,Sea Level PressureIn,VisibilityMPH,Wind Direction,Wind SpeedMPH,Gust SpeedMPH,PrecipitationIn,Events,Conditions,WindDirDegrees,DateUTC
12:13 AM,51.8,42.8,71,29.64,10.0,South,5.8,-,N/A,,Clear,190,2012-11-22 06:13:00
12:33 AM,53.6,42.8,67,29.62,10.0,South,3.5,-,N/A,,Clear,170,2012-11-22 06:33:00
12:53 AM,53.6,42.8,67,29.61,10.0,South,4.6,-,N/A,,Clear,170,2012-11-22 06:53:00
1:13 AM,51.8,42.8,71,29.61,10.0,South,4.6,-,N/A,,Clear,190,2012-11-22 07:13:00
1:33 AM,51.8,42.8,71,29.61,10.0,South,4.6,-,N/A,,Clear,180,2012-11-22 07:33:00
1:53 AM,51.8,42.8,71,29.60,10.0,South,3.5,-,N/A,,Clear,180,2012-11-22 07:53:00
2:13 AM,50.0,42.8,76,29.60,10.0,South,4.6,-,N/A,,Clear,190,2012-11-22 08:13:00
2:33 AM,48.2,42.8,82,29.60,10.0,Calm,Calm,-,N/A,,Clear,0,2012-11-22 08:33:00
2:53 AM,48.2,42.8,82,29.59,10.0,South,3.5,-,N/A,,Clear,190,2012-11-22 08:53:00
3:13 AM,51.8,42.8,71,29.59,10.0,SSW,3.5,-,N/A,,Clear,200,2012-11-22 09:13:00
3:33 AM,51.8,42.8,71,29.59,10.0,South,4.6,-,N/A,,Clear,190,2012-11-22 09:33:00
3:53 AM,50.0,41.0,71,29.59,10.0,South,5.8,-,N/A,,Clear,180,2012-11-22 09:53:00
4:13 AM,50.0,41.0,71,29.59,10.0,Calm,Calm,-,N/A,,Clear,0,2012-11-22 10:13:00
4:33 AM,48.2,41.0,76,29.58,10.0,Calm,Calm,-,N/A,,Clear,0,2012-11-22 10:33:00
4:53 AM,48.2,41.0,76,29.58,10.0,Calm,Calm,-,N/A,,Clear,0,2012-11-22 10:53:00
5:13 AM,48.2,41.0,76,29.60,10.0,Calm,Calm,-,N/A,,Clear,0,2012-11-22 11:13:00
5:33 AM,48.2,41.0,76,29.59,10.0,Calm,Calm,-,N/A,,Clear,0,2012-11-22 11:33:00
5:53 AM,46.4,39.2,76,29.60,10.0,SSW,3.5,-,N/A,,Clear,210,2012-11-22 11:53:00
6:13 AM,46.4,39.2,76,29.61,10.0,SW,4.6,-,N/A,,Clear,230,2012-11-22 12:13:00
6:33 AM,46.4,39.2,76,29.61,10.0,WSW,4.6,-,N/A,,Clear,240,2012-11-22 12:33:00
6:53 AM,46.4,37.4,71,29.62,10.0,West,3.5,-,N/A,,Clear,280,2012-11-22 12:53:00
7:14 AM,46.4,37.4,71,29.61,10.0,West,3.5,-,N/A,,Clear,260,2012-11-22 13:14:00
7:33 AM,46.4,35.6,66,29.61,10.0,Calm,Calm,-,N/A,,Clear,0,2012-11-22 13:33:00
7:53 AM,44.6,35.6,71,29.61,10.0,Calm,Calm,-,N/A,,Clear,0,2012-11-22 13:53:00
8:13 AM,44.6,35.6,71,29.62,10.0,SSW,3.5,-,N/A,,Clear,210,2012-11-22 14:13:00
8:33 AM,46.4,37.4,71,29.62,10.0,WSW,4.6,-,N/A,,Clear,250,2012-11-22 14:33:00
8:53 AM,48.2,37.4,66,29.65,10.0,West,9.2,-,N/A,,Clear,280,2012-11-22 14:53:00
9:13 AM,46.4,35.6,66,29.65,10.0,WNW,9.2,-,N/A,,Clear,290,2012-11-22 15:13:00
9:33 AM,46.4,35.6,66,29.66,10.0,WNW,10.4,-,N/A,,Clear,290,2012-11-22 15:33:00
9:53 AM,44.6,35.6,71,29.67,10.0,WNW,11.5,18.4,N/A,,Clear,300,2012-11-22 15:53:00
10:13 AM,44.6,35.6,71,29.69,10.0,WNW,17.3,21.9,N/A,,Clear,290,2012-11-22 16:13:00
10:33 AM,44.6,37.4,76,29.70,10.0,WNW,15.0,24.2,N/A,,Clear,290,2012-11-22 16:33:00
10:53 AM,42.8,35.6,76,29.72,7.0,NW,20.7,27.6,N/A,,Mostly Cloudy,310,2012-11-22 16:53:00
11:13 AM,39.2,35.6,87,29.73,10.0,NW,19.6,25.3,N/A,,Overcast,310,2012-11-22 17:13:00
11:33 AM,37.4,35.6,93,29.74,7.0,NW,16.1,26.5,N/A,,Overcast,310,2012-11-22 17:33:00
11:53 AM,37.4,35.6,93,29.75,10.0,NW,13.8,19.6,N/A,,Overcast,310,2012-11-22 17:53:00
12:13 PM,37.4,35.6,93,29.75,10.0,WNW,15.0,20.7,N/A,,Overcast,300,2012-11-22 18:13:00
12:33 PM,39.2,35.6,87,29.76,10.0,WNW,21.9,28.8,N/A,,Overcast,300,2012-11-22 18:33:00
12:53 PM,37.4,33.8,87,29.77,10.0,NW,20.7,29.9,N/A,,Overcast,310,2012-11-22 18:53:00
1:13 PM,37.4,33.8,87,29.78,10.0,NW,18.4,27.6,N/A,,Overcast,310,2012-11-22 19:13:00
1:33 PM,37.4,33.8,87,29.79,10.0,NW,21.9,33.4,N/A,,Overcast,310,2012-11-22 19:33:00
1:53 PM,37.4,33.8,87,29.81,10.0,NW,20.7,32.2,N/A,,Overcast,310,2012-11-22 19:53:00
2:13 PM,37.4,32.0,81,29.82,10.0,NW,19.6,31.1,N/A,,Overcast,310,2012-11-22 20:13:00
2:33 PM,35.6,32.0,87,29.83,10.0,WNW,23.0,28.8,N/A,Snow,Light Snow,300,2012-11-22 20:33:00
2:53 PM,33.8,33.8,100,29.83,-9999.0,WNW,17.3,26.5,N/A,,Unknown,300,2012-11-22 20:53:00
3:13 PM,33.8,33.8,100,29.84,-9999.0,WNW,17.3,24.2,N/A,,Overcast,300,2012-11-22 21:13:00
3:33 PM,33.8,33.8,100,29.86,-9999.0,WNW,16.1,23.0,N/A,,Unknown,300,2012-11-22 21:33:00
3:53 PM,33.8,32.0,93,29.87,-9999.0,WNW,18.4,27.6,N/A,,Overcast,300,2012-11-22 21:53:00
4:14 PM,33.8,32.0,93,29.89,-9999.0,WNW,18.4,26.5,N/A,,Overcast,300,2012-11-22 22:14:00
4:33 PM,33.8,32.0,93,29.90,-9999.0,NW,13.8,25.3,N/A,,Overcast,310,2012-11-22 22:33:00
4:53 PM,33.8,30.2,87,29.91,-9999.0,NW,20.7,27.6,N/A,,Unknown,310,2012-11-22 22:53:00
5:13 PM,32.0,30.2,93,29.92,-9999.0,WNW,21.9,32.2,N/A,,Unknown,300,2012-11-22 23:13:00
5:33 PM,32.0,30.2,93,29.93,-9999.0,WNW,13.8,24.2,N/A,,Overcast,300,2012-11-22 23:33:00
5:53 PM,32.0,30.2,93,29.94,-9999.0,WNW,20.7,32.2,N/A,,Unknown,300,2012-11-22 23:53:00
6:13 PM,32.0,28.4,87,29.95,-9999.0,WNW,19.6,29.9,N/A,,Unknown,300,2012-11-23 00:13:00
6:33 PM,30.2,28.4,93,29.95,-9999.0,NW,17.3,24.2,N/A,,Unknown,310,2012-11-23 00:33:00
6:53 PM,30.2,28.4,93,29.96,-9999.0,WNW,23.0,28.8,N/A,,Overcast,300,2012-11-23 00:53:00
7:13 PM,30.2,26.6,86,29.97,-9999.0,WNW,20.7,36.8,N/A,,Unknown,300,2012-11-23 01:13:00
7:33 PM,30.2,26.6,86,29.97,-9999.0,WNW,17.3,35.7,N/A,,Overcast,300,2012-11-23 01:33:00
7:53 PM,28.4,26.6,93,29.97,-9999.0,NW,19.6,28.8,N/A,,Overcast,310,2012-11-23 01:53:00
8:13 PM,28.4,26.6,93,29.98,-9999.0,WNW,24.2,32.2,N/A,,Overcast,300,2012-11-23 02:13:00
8:33 PM,28.4,24.8,86,29.98,-9999.0,NW,25.3,33.4,N/A,,Overcast,310,2012-11-23 02:33:00
8:53 PM,28.4,24.8,86,29.99,-9999.0,WNW,23.0,36.8,N/A,,Overcast,290,2012-11-23 02:53:00
9:13 PM,26.6,21.2,80,30.00,-9999.0,WNW,27.6,36.8,N/A,,Overcast,300,2012-11-23 03:13:00
9:33 PM,24.8,19.4,80,30.01,-9999.0,WNW,24.2,35.7,N/A,,Mostly Cloudy,300,2012-11-23 03:33:00
9:53 PM,24.8,19.4,80,30.02,-9999.0,WNW,18.4,27.6,N/A,,Overcast,300,2012-11-23 03:53:00
10:13 PM,24.8,19.4,80,30.02,-9999.0,WNW,24.2,31.1,N/A,,Overcast,300,2012-11-23 04:13:00
10:33 PM,23.0,19.4,86,30.03,-9999.0,NW,21.9,38.0,N/A,,Unknown,310,2012-11-23 04:33:00
10:53 PM,-9999,-9999,N/A,30.02,-9999.0,WNW,19.6,28.8,N/A,,Unknown,300,2012-11-23 04:53:00
11:13 PM,23.0,19.4,86,30.04,-9999.0,NW,17.3,35.7,N/A,,Overcast,310,2012-11-23 05:13:00
11:33 PM,23.0,17.6,80,30.04,-9999.0,NW,21.9,31.1,N/A,,Unknown,310,2012-11-23 05:33:00
11:53 PM,23.0,19.4,86,30.05,-9999.0,WNW,19.6,32.2,N/A,,Unknown,300,2012-11-23 05:53:00